Wind_Speed
10 10 10 10 11 8 8 10 11 12 12 13 13 13 12 9 8 7 7 6 4 5 6 6 7 7 7 8 8 9 9 7 7 7 9 9 7 6 5 6 9 10 11 9 7 7 7 7 6 5 5 5 4 3 4 5 6 6 8 8 9 9 8 7 7 7 7 7 6 7 7 8 8 8 8 9 9 9 9 8 8 8 9 8 8
11 11 9 9 9 7 8 11 11 11 10 13 14 11 10 8 7 6 4 3 4 5 6 6 7 7 6 8 8 8 9 8 8 8 9 10 11 8 6 6 8 9 10 9 8 8 8 7 6 6 6 5 4 4 3 3 4 5 6 7 8 8 8 8 8 7 6 6 6 6 7 6 6 7 8 8 8 7 7 8 8 8 8 8 8
12 13 10 8 7 7 9 9 8 9 10 12 12 9 8 4 1 2 3 4 6 6 6 8 9 6 6 6 7 7 7 8 8 8 10 12 12 9 7 7 8 8 9 9 9 9 9 7 7 7 6 5 5 4 2 1 2 3 5 6 8 8 8 8 8 8 7 6 6 6 6 5 5 6 6 6 6 6 7 7 7 7 7 8 8
11 12 10 9 8 7 8 5 5 7 8 9 8 7 7 4 6 2 3 4 6 7 6 9 11 6 6 5 6 7 7 7 8 7 9 12 13 11 10 8 8 8 9 9 9 10 10 8 7 7 6 5 5 5 3 2 1 2 3 4 6 6 7 7 7 7 7 7 6 5 4 4 4 4 4 4 5 6 6 6 6 6 7 7 7
11 10 7 6 6 5 5 3 2 4 4 4 4 6 6 3 3 1 3 4 5 8 7 8 12 7 4 4 4 5 3 5 6 6 6 10 12 12 13 11 9 9 9 8 8 10 11 9 7 6 6 5 5 5 4 3 1 1 1 3 4 4 5 6 6 6 6 6 6 5 4 4 4 3 3 3 4 5 5 5 5 6 6 6 6
12 11 5 3 4 5 4 2 1 2 2 2 3 4 3 1 1 3 4 6 7 8 7 10 14 8 2 2 2 2 2 1 2 4 5 6 9 11 12 12 11 10 9 9 8 10 10 10 8 6 7 6 5 5 4 4 2 1 1 2 2 2 3 5 6 6 5 5 5 5 4 4 4 3 3 2 3 3 4 4 5 5 5 5 5
12 11 8 5 6 6 4 3 2 1 1 1 1 2 2 2 3 3 4 6 7 7 8 13 14 7 4 3 1 2 3 2 1 1 3 4 7 8 8 10 12 11 10 9 8 9 9 9 8 6 7 7 6 6 5 4 3 1 1 2 0 1 2 3 4 4 5 4 4 4 3 3 4 4 3 2 2 2 2 3 4 3 3 4 5
10 10 9 8 7 6 5 3 2 1 1 1 0 1 1 2 2 2 3 4 4 5 8 14 12 6 4 2 1 2 2 2 2 1 2 3 5 6 6 8 10 11 12 11 9 8 8 9 8 5 5 6 6 6 5 5 4 3 2 2 0 0 1 2 2 2 3 4 3 2 2 2 3 3 3 2 1 1 1 2 3 3 2 3 4
8 8 8 7 5 4 4 4 3 2 2 2 1 0 0 1 2 1 2 4 4 5 7 11 10 4 3 2 2 2 2 1 1 2 3 3 4 5 8 11 10 11 13 12 10 9 9 8 8 6 5 5 6 7 6 5 5 4 4 3 1 0 1 0 1 1 1 2 2 1 2 1 1 2 2 2 2 2 1 1 2 2 2 2 3
5 6 6 5 5 4 4 5 4 3 2 2 2 1 1 1 3 2 2 3 4 5 4 5 7 4 3 2 2 3 3 2 2 3 3 3 4 4 6 10 10 9 11 10 8 11 13 11 8 6 6 5 6 7 7 6 6 5 4 4 2 1 1 1 0 1 1 2 1 0 1 1 1 1 0 0 1 2 1 1 1 1 2 2 3
5 4 4 5 5 4 3 4 4 3 3 3 3 2 1 2 2 3 3 3 4 5 3 2 3 3 3 2 2 2 3 4 3 3 4 4 4 4 4 2 6 9 10 8 8 11 13 12 9 8 8 7 6 7 7 7 7 6 6 5 4 2 1 1 2 4 4 3 3 2 1 1 2 2 0 1 1 1 1 0 1 0 2 3 3
5 4 4 5 5 5 5 4 5 4 4 4 3 2 1 2 3 4 3 3 3 4 4 2 1 3 2 1 1 2 2 3 4 4 4 5 5 4 5 3 1 6 10 9 10 11 11 10 10 9 9 9 9 9 8 7 7 6 6 6 6 6 4 2 4 7 5 5 4 4 3 2 2 2 2 2 3 2 1 1 1 1 1 2 3
6 5 4 5 5 5 5 5 5 5 4 4 5 4 3 3 3 3 3 3 4 3 3 3 1 2 2 1 1 1 1 2 3 4 4 4 3 4 4 4 4 3 9 11 10 8 8 9 9 9 9 9 10 9 8 7 8 7 6 5 5 7 7 5 5 7 6 6 5 4 5 4 3 3 3 2 2 4 4 2 2 2 2 2 2
6 5 4 4 4 4 4 3 3 3 3 3 4 5 4 4 3 3 3 4 4 3 2 3 2 1 1 2 2 1 0 1 2 2 2 3 3 2 3 5 6 3 5 12 11 7 8 8 6 7 7 7 7 8 8 9 9 8 6 5 4 4 5 6 6 7 7 8 6 5 6 5 4 4 3 3 2 3 4 4 3 2 3 3 2
5 4 4 4 4 4 3 3 3 2 2 2 3 3 4 4 3 3 3 4 3 2 1 2 2 1 3 3 1 1 2 2 2 3 3 2 1 1 2 4 5 9 8 10 13 10 9 8 6 5 5 4 4 6 8 9 9 7 5 5 5 3 4 3 4 6 8 10 9 7 8 7 6 5 5 4 4 3 3 4 4 4 4 4 4
5 5 6 6 5 4 4 3 3 3 2 2 1 1 2 2 2 2 2 2 3 3 2 1 2 1 2 2 0 2 1 2 1 2 4 4 3 3 6 6 5 8 11 12 13 11 10 9 8 7 7 6 4 5 6 6 6 5 4 5 6 5 5 5 5 5 6 9 10 9 9 9 8 7 6 6 6 4 3 4 4 5 5 5 5
5 6 6 6 6 5 4 4 4 4 4 3 3 3 1 1 0 1 2 2 1 3 4 3 1 1 0 0 0 1 2 2 2 0 3 5 6 7 8 7 5 7 12 14 12 10 8 9 9 8 8 9 6 5 6 5 4 2 2 4 7 7 8 8 8 7 6 7 9 9 10 10 9 8 8 8 7 5 4 4 5 5 6 6 6
6 6 6 6 5 5 5 4 4 5 5 5 5 5 4 4 4 3 2 3 3 1 3 4 2 0 1 2 1 1 3 4 3 1 2 4 7 7 9 9 10 10 12 13 12 11 9 8 11 10 10 11 9 7 7 7 5 3 2 4 7 8 9 10 11 11 10 10 9 8 8 9 9 9 10 10 8 7 6 6 6 7 7 7 7
6 5 5 5 5 5 4 3 3 4 4 5 6 5 6 7 7 6 6 5 5 4 4 5 4 1 3 3 1 0 4 4 2 2 3 3 5 8 10 10 11 10 10 11 11 11 11 10 12 13 12 13 12 10 8 8 5 2 3 4 4 5 6 8 9 9 9 10 11 11 10 9 9 10 11 11 10 10 8 8 9 9 8 7 7
7 6 6 6 5 5 4 3 3 3 4 6 6 6 7 8 9 9 9 8 8 8 7 7 4 2 4 5 2 0 4 5 3 2 3 3 4 7 9 10 11 11 11 11 11 11 12 13 13 14 15 15 14 12 9 7 5 3 3 1 1 2 2 3 4 4 4 4 5 7 8 9 11 12 11 10 11 11 10 10 11 10 9 9 9
8 7 7 6 6 5 5 5 4 4 5 6 6 7 8 9 10 10 10 10 10 11 10 9 8 6 6 6 5 3 4 5 2 2 3 5 4 5 7 8 10 10 10 10 11 11 12 13 14 14 16 16 14 13 10 7 5 5 5 4 4 5 5 6 7 8 8 7 6 4 3 3 6 10 10 10 11 12 12 13 13 12 12 12 12
8 8 7 7 6 6 6 6 6 6 7 7 7 7 9 10 10 10 10 10 10 11 11 10 10 9 8 7 6 5 4 6 2 1 3 3 3 5 7 7 7 7 7 9 10 11 12 13 14 15 15 15 15 14 12 10 8 7 6 6 6 6 7 8 9 9 9 9 8 8 8 8 6 3 3 5 6 8 10 12 14 14 14 13 12
9 8 8 8 7 7 7 7 8 8 8 8 7 8 9 9 10 10 11 11 10 10 11 10 9 9 9 8 8 7 6 5 4 5 5 3 3 5 7 7 8 7 6 6 8 10 12 13 14 14 14 14 14 14 13 12 11 10 8 8 7 7 7 8 8 8 8 8 8 8 8 8 9 8 8 9 9 8 6 8 11 12 11 10 10
9 9 8 8 8 7 7 8 8 8 8 8 8 9 9 9 9 10 11 11 11 11 11 11 10 9 9 8 8 8 8 8 7 5 4 5 6 6 7 7 7 8 8 8 10 11 11 12 13 14 13 13 13 13 13 12 12 11 10 9 8 8 7 7 6 6 6 5 5 5 5 5 6 6 7 8 8 8 7 6 7 9 9 9 8
10 9 9 8 7 7 8 8 9 9 9 9 9 9 9 9 10 10 11 11 11 11 11 11 11 10 9 9 9 9 9 8 7 7 6 6 6 6 7 8 7 8 9 9 10 11 11 11 12 12 12 12 12 12 11 11 11 10 10 9 9 8 8 7 7 7 7 6 6 5 5 5 5 5 4 4 5 5 6 6 6 7 8 9 9
11 10 9 9 9 9 9 9 10 10 10 9 9 9 9 10 10 10 10 10 10 10 11 11 11 11 9 9 10 10 10 8 7 6 5 4 5 6 7 7 7 8 9 9 9 9 10 10 10 11 11 11 11 10 9 8 8 8 8 8 7 7 7 7 8 8 8 8 8 8 8 7 7 7 6 6 6 7 8 8 9 9 10 10 10
12 11 11 10 10 10 10 10 10 10 10 10 10 10 10 10 10 10 10 10 10 10 10 11 11 11 10 10 10 10 10 9 8 7 6 5 6 6 5 4 5 6 6 7 8 8 8 9 10 10 9 9 9 8 8 7 7 9 8 6 6 6 6 7 7 8 8 8 8 9 9 9 8 9 9 9 9 10 10 11 11 11 12 12 12
13 12 12 11 11 10 10 10 10 10 10 10 10 10 10 10 10 10 10 10 10 10 10 10 10 10 10 10 10 10 10 9 8 8 7 5 5 5 2 2 4 4 4 4 6 7 7 7 8 8 8 8 7 7 7 6 6 9 6 3 6 7 6 7 7 7 8 8 9 9 9 9 10 10 10 10 11 11 11 11 12 12 12 13 13
14 13 12 11 10 10 10 9 9 9 9 10 10 10 9 10 9 10 10 9 10 10 9 9 9 9 10 10 10 10 10 10 9 8 7 5 5 3 3 3 3 1 4 3 4 5 5 6 7 7 6 7 6 6 6 5 6 7 4 3 7 9 8 8 9 9 9 10 10 10 11 10 11 11 11 11 11 12 12 12 12 12 12 13 13
14 13 12 11 10 9 9 9 8 8 8 8 9 9 8 8 8 8 8 8 8 8 8 9 9 9 9 9 9 9 9 9 9 9 7 6 5 4 4 4 5 4 3 5 4 4 4 4 6 6 6 5 5 6 5 5 6 6 4 2 6 10 9 8 11 12 12 12 11 12 12 12 13 13 13 13 12 13 13 13 13 13 13 13 13
14 14 13 12 11 9 8 8 8 7 7 7 7 7 7 7 7 7 6 6 7 7 7 7 7 7 8 8 8 8 8 8 8 8 7 6 5 4 5 4 5 6 4 5 4 3 3 3 4 4 4 4 4 4 4 4 6 6 4 2 5 9 9 9 12 14 14 14 14 14 14 14 14 14 14 15 15 15 15 15 15 15 15 15 15
14 14 13 12 11 10 9 9 8 7 7 7 7 6 6 6 6 6 5 5 6 6 5 5 5 5 5 6 6 6 6 6 7 7 6 6 6 5 5 5 5 4 4 5 6 5 4 3 3 3 3 3 3 4 3 3 6 5 3 1 6 9 8 9 12 13 14 15 16 16 16 15 15 15 16 16 16 16 17 17 17 17 18 18 18
15 15 14 13 12 11 10 10 9 8 7 7 6 6 6 5 5 6 5 4 5 5 4 4 4 3 3 4 4 4 4 4 3 3 4 4 4 4 4 4 5 3 4 6 6 6 4 2 2 3 3 1 1 4 4 3 4 4 1 1 4 5 5 7 10 11 13 15 17 18 17 16 15 16 16 17 17 17 18 18 19 19 20 20 20
15 14 14 13 13 12 11 11 10 9 8 8 7 6 6 6 5 5 4 4 4 4 4 3 3 3 2 2 3 3 3 3 3 3 3 1 1 3 3 3 4 3 3 4 4 5 4 2 2 2 3 2 2 3 3 3 5 5 3 2 5 4 4 6 8 10 12 15 18 20 17 14 14 15 15 16 17 18 18 19 19 20 20 21 21
15 14 14 13 13 12 12 11 11 10 9 8 7 6 6 6 6 5 5 4 4 4 4 3 4 4 3 2 2 1 2 2 3 4 3 3 3 2 3 3 3 3 3 2 1 1 3 3 2 3 4 3 3 3 2 1 2 5 4 3 6 6 5 7 8 11 13 15 19 21 17 14 14 14 14 15 16 17 18 18 19 19 20 21 22
16 14 14 14 13 13 12 12 11 10 9 9 7 7 7 7 6 6 5 5 5 5 5 4 4 5 4 3 3 2 1 1 1 2 1 2 3 2 1 1 2 2 2 2 2 2 1 1 1 2 2 2 2 3 5 5 5 6 6 5 7 8 8 8 10 12 14 17 20 20 18 17 16 15 15 15 15 15 16 17 17 18 19 20 21
16 14 14 14 13 12 12 12 11 10 9 9 8 7 7 7 7 6 6 6 6 7 6 6 5 5 6 5 5 4 3 2 2 1 0 0 1 2 1 2 1 1 1 3 3 2 3 2 2 1 3 4 5 5 5 7 9 10 9 7 8 11 12 12 11 12 15 17 17 17 20 20 18 19 20 19 16 15 15 15 14 15 17 18 20
15 14 14 14 13 13 12 11 11 11 10 9 8 8 8 8 8 8 8 8 9 9 8 8 8 7 7 7 6 6 6 5 5 4 1 1 1 3 3 4 4 1 1 3 4 3 4 3 3 3 2 3 6 7 5 5 9 11 9 8 9 12 14 14 14 14 14 14 12 14 17 17 17 20 22 21 19 17 16 14 14 16 17 18 18
14 14 14 14 13 12 12 12 11 10 9 9 8 8 8 8 9 10 10 11 11 11 10 9 8 8 8 8 7 7 7 7 7 6 4 4 4 3 3 6 7 3 2 4 5 4 5 5 5 5 4 3 3 4 5 7 9 12 11 11 12 14 14 14 15 16 15 12 11 13 16 16 17 19 20 20 20 18 16 15 17 18 18 16 15
14 14 14 14 14 13 13 13 12 10 10 9 8 7 7 8 9 11 12 13 12 12 11 9 8 7 7 7 7 7 8 8 8 8 7 6 6 5 5 5 5 4 3 5 6 5 7 8 7 7 7 5 4 4 6 9 11 13 12 12 13 14 14 14 15 15 15 12 11 13 15 16 17 19 19 19 19 17 16 18 18 16 15 15 14
13 14 13 11 12 15 16 13 11 9 8 6 6 7 9 9 9 11 12 12 12 11 9 8 7 6 6 6 6 7 8 8 8 8 8 8 8 7 6 6 5 3 3 5 7 6 7 10 9 8 7 7 7 8 8 10 12 13 13 12 12 14 15 16 15 13 13 12 11 13 13 14 16 18 17 16 16 16 17 18 15 13 14 15 15
11 13 14 9 6 9 12 11 10 8 5 5 8 11 12 10 9 10 11 9 8 7 5 4 4 4 4 4 5 8 9 9 10 11 10 11 11 10 8 8 7 5 4 4 5 4 5 8 9 7 7 8 8 8 9 10 11 11 12 13 14 15 16 16 14 13 12 11 11 14 15 15 17 17 15 14 15 15 14 13 12 13 15 16 17
8 9 12 10 6 8 8 6 8 7 5 7 9 9 8 7 7 5 5 4 2 1 1 1 1 2 2 2 3 5 6 7 8 10 11 13 14 14 13 12 10 8 6 5 5 5 7 9 8 6 8 9 9 9 10 11 9 9 12 13 14 15 15 14 15 14 12 11 13 16 18 16 15 15 15 14 14 13 12 13 15 16 18 20 22
7 7 7 8 10 10 9 5 6 6 7 7 6 6 5 5 6 3 1 1 2 3 3 3 2 1 0 1 2 3 4 5 5 4 8 11 14 16 16 15 13 12 10 8 6 5 5 5 6 6 7 8 8 8 7 7 7 9 12 13 13 13 13 14 15 15 13 13 16 18 19 16 13 14 15 14 13 14 14 16 18 19 21 23 25
6 6 6 7 8 9 7 3 6 6 7 7 7 7 7 6 6 4 2 2 2 4 4 3 3 2 1 1 2 3 4 5 5 3 4 8 11 14 15 14 14 13 11 11 10 8 4 1 3 5 6 6 7 6 5 5 8 10 11 12 12 12 13 14 15 17 18 16 15 16 17 15 13 14 15 14 14 15 15 17 19 20 21 22 24
7 6 6 5 4 5 6 6 8 7 7 7 8 8 7 7 6 4 2 2 2 4 3 3 3 3 2 2 1 3 2 2 4 5 2 4 5 8 8 8 9 10 9 8 10 10 8 4 3 4 4 4 4 5 5 6 7 8 10 12 12 13 14 16 18 20 20 17 15 15 15 14 13 13 15 15 15 15 16 17 19 20 21 22 24
10 8 8 8 6 7 9 10 10 8 7 7 7 7 7 6 6 4 2 1 2 3 4 3 3 3 3 3 1 2 3 2 5 6 4 1 2 5 6 6 5 5 6 7 7 7 7 5 3 3 4 5 6 6 7 8 8 9 10 12 13 15 17 17 18 19 18 15 13 13 14 15 14 15 16 16 16 17 16 17 18 20 21 22 22
11 10 9 9 8 8 8 9 10 9 8 7 6 6 6 6 6 4 2 2 3 3 4 4 4 4 3 3 2 2 3 2 6 6 7 6 5 5 6 6 5 5 7 8 7 7 7 6 6 6 8 10 11 11 11 12 11 11 11 12 13 14 15 15 16 15 14 12 11 12 16 16 14 15 17 17 16 17 17 17 18 19 20 20 21
11 10 9 8 8 8 8 8 9 8 7 6 5 5 6 6 5 3 2 3 4 4 4 5 6 4 3 3 4 4 3 3 4 7 11 8 4 5 6 5 4 4 5 7 6 6 7 7 8 9 10 11 12 12 12 12 10 10 10 10 11 11 12 13 14 13 13 13 12 13 15 15 14 15 17 17 17 17 18 17 17 17 18 20 22
9 9 8 8 7 7 7 7 8 7 6 6 5 5 5 5 6 4 3 3 5 4 4 5 6 5 5 7 7 6 5 6 7 10 11 6 2 4 6 5 5 5 4 4 5 6 7 9 9 10 11 11 12 13 12 10 8 9 9 9 10 10 11 12 13 13 14 13 12 11 11 13 14 15 17 19 18 17 17 16 16 17 18 20 21
9 8 8 8 8 7 6 6 7 7 6 6 6 6 6 6 7 5 4 3 6 4 3 5 6 5 5 6 6 6 6 8 9 9 8 3 2 3 6 5 7 8 5 2 4 6 7 9 10 11 12 12 12 13 11 9 9 10 9 8 9 10 11 12 13 13 12 10 10 12 13 15 16 16 17 19 17 15 16 17 17 18 19 19 19
Wind_Direction
185 191 191 198 190 185 202 208 212 213 216 225 232 227 218 215 210 209 214 206 196 216 224 209 199 210 207 192 192 194 195 197 197 187 162 159 178 188 180 163 158 160 163 169 169 168 173 171 170 160 145 157 159 137 110 86 82 79 78 75 69 66 62 63 67 74 85 91 90 90 88 88 87 90 94 91 86 81 83 82 82 92 96 90 81
195 202 201 205 197 193 209 214 213 211 220 228 231 232 220 215 213 211 219 209 197 214 236 240 210 200 207 195 188 191 188 192 199 191 173 163 172 185 190 174 166 171 168 170 172 169 175 174 173 169 158 159 155 159 149 100 89 85 79 75 71 64 58 58 58 63 75 83 85 88 91 90 85 88 95 94 88 90 96 91 84 89 94 91 84
195 198 200 205 201 208 213 219 221 207 220 235 237 246 240 237 275 247 263 247 219 218 234 252 242 204 195 194 180 186 184 191 202 193 178 167 172 181 181 180 174 176 175 175 174 167 171 178 174 173 171 160 157 171 170 129 98 92 86 77 72 63 58 57 56 58 62 67 70 79 90 93 84 81 90 97 99 100 98 91 86 86 88 88 88
191 191 192 200 206 218 210 216 245 219 226 244 252 273 283 341 23 4 285 270 238 244 245 246 258 234 181 191 178 183 183 188 202 199 178 164 165 169 173 184 182 177 180 181 178 168 170 181 180 176 178 162 156 168 161 163 123 96 105 82 70 61 57 57 61 62 59 62 59 64 78 82 85 84 84 88 100 107 102 98 96 91 87 87 89
196 200 188 194 211 229 215 199 266 248 247 275 277 274 280 334 24 267 281 289 246 256 255 242 266 268 188 194 179 183 194 187 199 205 186 160 161 167 170 178 182 182 182 182 180 175 177 182 180 178 179 171 166 169 163 163 128 68 142 103 72 61 64 61 64 69 63 64 59 58 66 69 77 84 80 74 91 112 113 115 113 105 98 93 95
186 200 189 207 227 234 232 200 200 225 220 267 273 253 240 209 188 215 259 274 255 261 264 260 274 282 242 234 193 207 245 228 208 201 190 158 151 164 171 171 177 182 179 179 183 182 183 181 181 185 181 178 177 177 170 160 154 73 190 173 76 59 88 75 67 69 64 64 63 60 61 62 63 70 74 65 78 107 118 119 116 115 115 110 106
168 189 185 199 218 210 213 208 184 173 186 220 261 245 225 219 196 189 243 264 266 275 270 263 264 254 240 271 278 237 226 230 289 192 195 174 145 155 179 175 173 180 178 175 180 183 184 183 186 187 178 180 181 180 177 170 174 150 163 204 172 81 120 89 74 70 59 53 58 64 62 55 54 57 61 57 68 86 101 113 110 111 119 118 112
165 183 178 186 208 197 189 195 167 105 110 107 357 288 233 246 227 177 254 279 282 284 268 256 247 219 225 271 294 269 241 226 242 245 244 211 166 161 191 191 179 180 178 175 177 178 184 191 193 186 178 183 179 172 171 176 186 184 181 205 223 111 135 89 91 89 52 41 45 70 86 69 52 44 38 45 79 80 77 107 116 120 113 118 127
160 172 168 175 194 179 156 147 135 126 140 127 109 346 106 253 275 249 266 286 282 286 277 259 253 230 204 225 267 279 280 268 268 264 251 230 217 196 194 194 182 174 175 175 178 178 181 192 195 190 187 180 166 161 161 171 180 186 192 193 201 15 32 114 114 105 48 32 38 85 123 128 67 44 28 37 58 62 61 100 126 148 142 129 141
145 158 157 157 164 161 140 140 154 157 146 136 144 181 168 205 272 264 246 264 279 299 292 247 253 259 228 204 240 284 297 301 318 288 276 270 255 239 211 185 162 161 173 172 176 183 184 184 181 180 191 185 163 157 158 166 175 181 187 193 211 326 20 187 183 28 4 321 298 319 114 129 49 40 172 352 38 34 35 88 113 158 165 161 162
142 151 155 141 140 143 139 145 152 145 148 162 166 192 175 156 241 261 265 269 282 302 300 214 209 220 230 227 214 258 295 302 304 293 304 306 287 294 292 206 129 139 156 164 178 182 182 179 173 180 194 193 177 163 165 171 178 184 183 188 201 237 313 188 246 303 319 310 278 241 255 18 15 2 282 222 217 359 2 240 258 211 173 179 185
141 149 153 136 129 131 139 147 137 137 160 170 158 169 178 168 216 243 264 278 276 290 300 307 114 136 166 204 199 222 267 314 320 314 327 333 330 322 314 325 43 135 142 162 178 170 173 177 176 186 194 194 187 174 174 179 183 189 183 184 191 206 236 227 249 276 288 301 285 250 261 291 337 345 323 252 216 226 247 222 238 238 222 211 204
129 127 121 112 113 115 123 134 133 138 151 151 143 148 173 184 202 219 238 264 266 265 283 296 194 136 139 161 216 271 294 322 326 345 348 332 319 317 331 331 301 182 150 162 170 163 170 177 177 187 189 192 194 186 180 180 185 195 185 184 191 195 213 222 236 257 268 284 284 264 267 271 284 313 323 309 237 220 225 228 223 219 235 246 231
107 105 100 92 93 97 102 105 111 120 124 133 139 148 168 179 192 204 216 237 242 229 260 288 246 210 258 205 199 241 63 340 300 325 304 265 261 293 330 317 309 313 147 143 138 135 148 157 166 185 186 182 187 190 190 185 188 201 192 192 209 187 200 222 235 249 263 272 274 272 275 278 281 289 303 315 295 240 235 242 248 244 240 245 249
99 98 93 86 85 90 93 89 91 94 100 123 141 156 168 178 198 208 215 223 210 178 222 287 269 353 296 257 217 231 160 123 305 302 289 297 310 304 331 329 344 351 10 81 97 102 116 121 117 140 157 143 151 181 194 192 191 203 206 213 227 209 206 235 252 260 265 265 267 270 272 275 281 289 295 295 291 274 249 246 261 274 254 238 242
88 83 81 79 77 78 78 76 78 74 70 77 99 131 155 172 204 235 253 235 189 158 143 253 265 342 289 264 340 279 188 116 182 303 324 2 47 28 7 353 343 357 12 46 77 95 106 106 99 115 123 108 128 168 178 185 189 200 213 226 234 231 228 234 246 260 267 264 263 265 267 270 274 279 279 277 278 278 270 257 261 272 258 239 240
84 81 81 78 74 73 72 68 60 52 46 41 42 40 38 78 73 309 304 307 248 160 143 148 236 310 236 166 255 297 59 123 177 5 355 14 50 53 33 7 350 23 40 50 67 79 94 112 111 115 109 95 107 127 119 127 154 179 226 244 244 242 239 236 239 246 250 251 253 256 262 268 273 277 274 273 275 275 282 278 270 273 258 242 244
88 83 81 78 76 74 71 70 63 51 41 36 40 37 34 43 39 32 31 3 350 36 120 118 101 80 130 120 264 303 105 156 185 109 67 34 38 55 56 46 42 50 56 55 57 56 60 88 95 96 97 92 101 115 109 106 117 157 199 245 253 254 254 253 254 254 249 246 246 251 257 261 266 273 275 278 281 280 286 288 285 280 263 250 251
89 82 83 84 81 78 72 67 71 74 64 50 45 44 44 44 41 38 38 31 20 22 52 74 67 35 87 96 266 255 121 156 189 150 131 72 56 73 72 63 57 55 59 58 58 58 56 62 69 77 81 81 93 107 105 100 95 135 196 235 269 276 274 273 273 273 269 262 259 260 260 258 257 262 270 279 284 284 285 283 285 282 272 268 266
91 88 90 90 83 76 70 64 70 86 90 74 58 53 51 45 43 41 38 36 33 31 38 52 55 30 61 70 28 47 132 149 190 182 135 122 114 98 89 82 69 61 63 63 65 68 65 64 66 72 74 74 83 92 91 92 88 89 106 103 11 354 342 344 346 356 357 324 293 275 265 261 256 255 263 272 275 280 281 277 279 279 271 269 269
92 93 94 90 83 76 75 75 70 73 86 86 72 59 55 49 45 43 42 42 39 37 40 43 44 35 39 52 37 16 98 118 181 248 112 124 140 123 112 98 74 63 67 72 73 74 73 74 73 74 76 77 80 86 92 97 98 95 82 58 48 47 46 46 46 51 55 54 46 31 11 316 266 256 262 268 269 272 273 270 271 272 271 275 279
94 93 91 88 84 82 86 85 75 73 80 83 76 65 59 56 54 51 48 48 46 45 46 43 41 36 29 33 34 25 61 94 128 172 100 99 126 131 131 118 91 71 71 79 81 81 80 79 77 77 78 79 79 80 88 92 86 79 69 58 59 60 60 60 59 59 57 60 63 59 51 45 41 22 336 318 301 287 276 272 273 274 276 279 281
101 95 90 88 85 84 87 86 80 78 79 78 75 70 65 62 60 58 54 53 50 49 49 46 42 42 34 25 28 29 28 45 83 131 145 149 136 124 119 120 114 103 98 95 89 87 86 82 78 78 77 79 80 75 72 76 77 71 67 68 68 65 65 62 63 65 61 61 66 64 56 49 47 43 33 26 16 0 340 314 303 301 301 297 286
110 101 96 94 91 90 89 87 83 80 78 76 74 73 70 66 61 58 56 52 50 50 50 46 41 44 41 31 33 38 32 28 41 76 111 111 114 119 115 118 113 106 114 109 91 82 79 78 78 78 79 80 80 77 71 70 71 67 63 63 61 58 59 54 52 53 51 53 55 52 46 36 34 31 25 21 12 2 357 347 329 323 322 321 312
118 111 108 104 99 97 94 91 88 83 81 79 76 75 75 72 67 63 61 58 54 54 54 50 44 43 42 38 37 41 43 39 44 61 70 84 107 115 109 116 121 120 124 113 95 84 75 74 76 76 77 78 81 82 77 69 68 66 61 59 55 49 46 41 36 30 25 24 20 14 11 3 359 358 358 356 345 331 319 310 311 312 309 309 309
125 120 115 110 105 101 98 96 94 89 86 81 76 74 75 77 72 67 66 64 62 61 59 57 52 47 45 44 43 41 41 39 39 63 85 96 103 101 101 121 132 126 120 104 91 87 80 74 74 76 76 76 80 85 85 78 70 65 56 47 43 39 34 29 23 17 13 9 6 2 357 353 347 339 331 323 317 311 306 305 304 304 301 298 297
129 124 119 116 111 108 105 101 100 97 93 89 84 77 74 76 73 70 70 67 66 67 64 61 56 53 50 49 52 45 39 38 30 39 62 74 83 93 104 125 116 97 93 91 87 85 86 81 74 75 78 80 81 84 90 85 67 69 65 37 25 27 19 17 13 5 2 357 353 351 346 342 339 333 327 321 317 313 310 309 306 304 302 298 297
132 129 126 124 119 115 111 107 105 102 98 95 92 86 81 79 76 72 72 69 67 67 65 62 57 56 54 53 59 53 43 42 41 43 50 62 86 96 101 115 107 106 101 88 86 84 83 86 82 76 77 83 84 81 85 80 66 75 79 26 17 23 12 11 7 358 354 347 342 339 335 332 329 324 322 317 314 312 309 307 306 304 302 300 299
137 135 134 131 126 121 115 111 109 105 103 102 98 94 88 84 81 78 76 74 72 68 64 62 58 55 55 55 59 57 50 47 50 54 48 50 79 74 23 34 45 131 143 115 94 83 63 63 78 87 84 85 89 84 79 77 74 81 84 19 13 15 12 12 6 359 351 343 338 333 327 324 321 318 316 313 310 308 307 306 305 303 301 300 298
142 142 141 138 132 129 124 118 115 110 109 107 104 102 98 92 89 85 82 79 78 75 70 67 62 58 56 57 59 56 52 51 53 58 54 52 67 56 43 42 3 354 96 115 99 85 75 59 60 74 82 83 88 87 76 62 61 71 76 35 3 4 9 11 4 360 354 346 341 334 328 322 317 313 309 307 305 304 303 302 301 300 299 298 297
149 148 147 146 143 139 135 130 125 121 119 116 114 111 108 106 103 98 95 89 87 85 80 75 71 67 62 57 58 54 49 52 54 55 54 53 60 63 62 64 29 21 62 115 119 92 86 85 68 61 67 67 67 79 86 55 37 51 74 48 357 2 6 3 355 349 346 346 343 336 330 323 317 312 307 303 301 299 298 297 296 296 295 294 294
154 153 154 154 152 150 147 145 142 138 136 131 129 125 121 121 116 113 112 107 102 96 88 85 79 76 73 62 58 51 41 50 56 54 54 47 48 62 67 75 69 44 49 88 108 101 78 79 91 75 63 70 62 56 66 44 16 22 56 19 355 2 357 344 339 336 333 337 339 337 330 323 317 312 308 304 301 298 296 294 293 292 291 290 290
159 159 161 160 160 159 156 156 155 153 152 147 143 141 138 132 125 124 128 124 113 104 99 99 91 78 73 71 70 55 38 45 47 53 70 62 57 72 77 87 90 69 63 87 107 109 92 84 94 76 54 12 51 50 45 35 11 358 2 354 348 356 345 325 320 321 324 326 331 334 330 322 317 312 308 306 303 301 299 296 295 293 291 289 288
165 166 167 166 165 164 162 162 162 161 162 159 157 157 149 145 142 141 147 141 125 119 121 123 117 107 94 80 78 55 33 29 353 11 60 37 18 96 88 85 91 74 72 106 117 113 120 132 152 139 97 24 357 43 54 41 18 350 325 339 339 330 332 333 320 311 314 317 322 328 327 321 318 313 310 308 306 304 303 301 299 297 295 293 291
169 173 172 170 170 168 166 167 166 168 168 165 168 170 164 164 164 161 167 163 154 154 157 162 152 138 139 135 116 89 45 36 348 2 32 336 334 63 83 71 81 66 46 53 68 113 158 152 217 208 136 72 354 9 11 342 355 339 326 337 340 327 315 327 327 313 309 310 315 322 328 328 324 317 313 310 308 306 305 303 302 299 297 295 293
172 177 176 175 175 173 173 174 173 175 174 171 178 182 179 183 185 181 187 189 186 188 187 184 175 160 166 181 171 164 150 110 335 351 32 328 341 21 109 99 93 72 30 351 332 321 247 198 268 300 48 24 315 350 346 331 329 327 324 325 335 339 326 319 321 314 309 308 310 317 327 333 332 327 323 319 312 308 305 302 300 298 296 294 293
173 176 177 179 181 181 182 183 179 178 180 181 186 193 193 196 202 202 204 209 209 208 208 205 202 190 187 199 198 187 190 190 210 250 286 280 317 307 235 202 178 159 328 312 312 315 296 267 237 301 343 325 323 331 325 337 341 329 323 324 330 339 333 322 319 315 312 310 309 317 327 334 334 330 329 328 325 320 313 306 301 300 299 296 293
174 177 180 182 188 189 190 193 189 183 186 193 197 204 206 206 213 216 217 221 222 221 220 217 215 213 207 211 211 204 207 208 210 227 238 197 256 302 302 294 294 232 199 290 305 303 304 312 304 297 269 267 318 328 315 330 332 319 319 326 324 328 330 324 320 316 311 305 301 312 321 326 324 322 324 326 326 324 317 312 310 309 305 298 293
177 181 184 189 196 198 195 197 199 192 191 199 205 210 215 218 223 227 229 229 226 221 218 214 213 216 216 218 221 218 217 216 213 217 218 208 224 278 308 302 306 304 236 269 286 283 288 295 296 303 292 238 249 303 309 317 316 314 325 333 324 323 327 324 318 316 311 300 293 307 317 318 317 318 318 319 321 320 310 305 311 312 306 300 297
186 189 194 197 199 204 205 203 202 198 194 201 208 213 225 233 235 235 234 232 231 224 214 206 206 210 213 219 226 224 223 225 218 208 206 207 214 234 250 254 274 294 288 282 290 300 304 299 290 294 297 283 265 281 306 319 318 316 325 329 321 320 324 322 317 315 313 304 296 306 314 316 317 318 314 311 312 310 301 303 311 309 298 297 302
193 197 203 206 206 210 210 205 199 195 192 200 213 219 229 239 247 252 249 242 239 236 221 205 196 199 207 214 222 225 222 222 216 207 210 215 215 225 235 221 218 241 270 284 299 320 321 309 303 301 294 287 298 312 318 321 318 314 315 316 315 318 321 317 313 315 316 310 302 304 309 311 312 309 304 301 301 300 300 306 307 294 285 291 299
188 199 205 209 228 232 218 194 177 175 180 207 219 223 233 240 247 266 272 261 248 243 230 202 180 186 203 207 215 229 232 230 229 229 229 224 219 223 223 210 207 220 240 262 273 280 293 297 301 308 303 297 310 321 312 306 308 310 314 316 316 318 318 314 311 315 318 315 310 306 306 309 308 303 299 298 296 296 300 300 288 280 286 292 296
171 196 204 203 224 262 260 206 163 158 184 210 215 218 230 231 222 246 284 291 287 303 358 24 130 182 203 207 212 230 239 239 241 245 240 231 227 229 230 226 223 224 226 232 233 238 261 278 288 305 306 301 307 309 300 303 313 316 316 315 313 315 317 313 310 311 315 320 316 307 304 307 306 300 297 297 294 292 291 284 277 278 283 286 290
152 173 193 205 215 236 257 232 148 153 193 200 184 174 179 182 174 165 34 352 5 31 40 20 9 24 184 201 192 193 203 209 219 249 254 242 233 230 233 237 234 227 224 225 226 239 265 278 290 306 304 300 308 313 315 328 328 315 310 308 308 312 311 305 301 301 307 315 312 303 300 303 304 298 295 295 294 293 289 284 280 280 282 287 294
159 171 187 207 211 214 228 190 123 145 186 182 161 158 159 154 146 126 60 22 49 53 44 26 17 13 359 273 182 165 181 201 196 205 262 264 246 235 234 237 235 231 232 233 231 235 243 263 297 297 294 300 314 322 334 332 314 308 308 306 309 309 303 298 297 297 300 304 301 294 293 298 300 298 296 297 298 296 293 289 288 287 290 296 302
170 177 184 188 179 175 174 143 128 144 164 161 159 164 163 156 144 119 61 36 78 76 65 47 31 24 6 341 220 161 166 202 176 168 215 285 255 228 219 217 224 229 234 233 228 228 233 245 276 294 296 303 314 322 328 319 311 311 309 306 307 305 297 293 291 290 291 289 283 282 287 294 301 301 298 300 301 299 295 292 292 295 298 301 303
161 163 164 156 143 147 151 140 136 141 140 142 155 163 163 166 162 141 104 99 115 90 78 69 50 44 37 7 345 142 126 150 168 161 154 138 161 172 168 167 180 193 192 192 200 213 223 229 235 259 273 275 283 292 295 295 298 302 301 298 297 294 289 287 286 286 288 286 279 276 282 292 300 301 299 302 302 300 298 296 295 297 300 301 301
146 145 145 142 135 132 132 128 127 130 130 135 147 157 162 172 173 164 171 181 144 102 93 86 65 58 53 42 59 94 93 181 208 184 153 144 148 155 159 160 158 167 186 197 209 223 233 236 240 255 269 276 282 285 287 288 287 290 295 296 292 287 284 286 289 291 295 297 293 286 286 292 300 300 299 302 302 300 299 299 297 297 299 300 301
143 143 142 143 142 136 130 127 122 120 129 140 149 160 169 175 176 189 220 183 141 112 107 85 64 80 114 99 93 94 101 162 195 169 157 159 168 167 170 180 184 191 211 227 242 250 256 265 272 277 282 287 291 295 298 296 292 295 301 296 292 295 294 291 293 297 300 302 303 297 290 290 297 301 301 304 305 303 302 300 299 301 303 303 303
150 154 154 152 150 144 138 134 128 126 138 156 165 176 184 185 182 204 237 172 141 128 125 99 70 85 124 122 110 103 113 131 138 151 164 181 233 187 179 193 218 224 218 241 278 289 293 301 302 300 301 303 305 307 306 301 303 313 310 289 283 293 293 289 294 299 299 302 312 316 304 297 302 306 307 308 305 302 301 302 303 305 304 303 304
160 167 169 162 157 151 142 143 144 141 148 167 177 180 191 197 188 209 261 182 148 159 169 136 108 98 115 128 128 119 117 127 134 152 174 210 302 200 196 221 240 236 208 194 269 284 299 307 304 304 307 304 303 306 304 294 295 306 302 275 269 283 289 290 296 300 297 301 325 331 316 304 305 307 309 310 305 301 303 304 304 305 304 306 308
Height
816 817 818 818 819 820 821 821 820 822 823 822 822 822 820 820 821 821 821 821 821 822 822 821 821 820 819 819 819 819 820 821 822 823 823 826 828 829 831 832 832 833 834 835 836 837 838 838 839 839 839 839 839 840 841 841 841 842 842 842 842 843 843 843 843 843 844 844 844 844 844 844 844 845 845 845 846 846 846 847 846 846 847 847 848
816 816 817 818 819 820 821 822 822 822 823 823 822 821 820 820 821 821 821 821 822 823 822 822 820 820 819 818 819 819 819 820 821 822 823 825 827 828 830 832 833 834 834 835 835 836 837 838 839 839 840 840 840 841 841 841 842 842 843 843 843 844 844 844 844 844 845 845 845 845 845 845 845 845 845 846 846 847 847 847 847 847 847 847 848
816 816 817 818 819 819 819 821 822 821 822 822 821 821 820 821 821 822 823 823 823 823 823 823 820 819 819 817 818 818 819 820 820 821 821 823 825 827 829 831 833 833 834 834 835 836 837 838 839 839 840 841 841 841 842 842 843 843 844 844 844 844 845 845 845 845 845 845 846 846 846 846 846 846 846 846 846 847 847 847 847 848 848 848 848
814 816 818 818 818 818 818 820 821 821 821 821 822 823 823 823 824 823 825 825 825 824 825 824 821 819 819 818 818 818 819 819 819 820 821 821 823 826 828 830 831 832 833 834 835 836 837 838 839 840 840 841 842 842 843 843 843 844 844 845 845 845 845 846 845 846 846 846 846 846 847 846 846 846 846 846 846 847 847 847 848 848 848 848 849
814 814 816 816 816 816 817 819 821 822 822 823 824 824 823 825 825 823 823 825 826 826 827 826 824 821 819 818 818 818 818 819 819 819 820 821 823 825 826 828 830 831 833 834 835 836 837 838 839 840 841 842 842 843 843 844 844 844 845 845 845 845 846 846 846 846 846 846 847 847 847 847 847 847 846 847 847 847 847 848 848 848 849 849 849
817 815 815 815 815 815 815 818 821 822 822 823 824 823 823 824 824 822 822 825 826 828 829 829 828 824 821 820 819 819 819 819 819 819 821 822 823 825 826 827 829 830 832 833 835 836 838 839 840 840 841 842 843 843 844 844 844 844 845 845 845 846 846 847 847 847 847 847 847 847 847 847 847 847 847 847 847 847 848 848 848 849 849 850 850
817 818 817 817 817 816 816 818 821 822 822 822 823 823 823 822 822 821 823 825 827 829 830 831 831 826 823 822 821 821 821 820 820 820 821 822 823 825 826 827 828 830 832 834 835 837 839 839 840 840 841 842 843 843 844 844 845 844 845 845 845 846 846 847 847 847 847 847 847 847 847 847 847 847 847 847 847 848 848 848 849 849 850 850 851
816 818 818 818 818 817 817 818 820 821 822 822 822 822 822 821 820 821 823 826 827 830 831 833 832 827 824 824 823 823 822 822 822 821 821 822 823 824 825 827 828 830 832 834 836 837 839 839 840 840 841 842 842 843 844 844 845 845 845 845 846 847 847 847 847 847 848 847 847 847 847 847 847 848 847 847 848 848 848 848 849 849 850 850 851
815 816 816 817 817 817 817 819 820 820 821 822 822 822 822 820 820 821 824 826 828 830 829 831 832 828 826 826 824 824 823 823 823 822 822 822 823 824 825 827 828 829 831 833 834 836 837 838 839 840 841 842 842 843 843 844 844 845 846 846 846 847 847 847 847 848 848 847 847 847 847 848 848 848 848 848 848 848 848 849 849 849 850 850 851
815 815 815 817 817 817 818 819 819 819 820 820 820 821 822 821 820 821 824 825 827 828 828 829 831 831 828 826 825 825 825 824 824 823 822 822 822 823 825 827 828 828 830 831 832 834 835 837 838 839 840 841 842 842 842 843 844 845 846 846 847 847 847 847 847 848 848 848 848 848 848 848 848 848 848 849 849 849 849 849 850 850 850 850 851
815 815 815 816 816 816 817 818 818 819 819 819 820 820 821 821 821 821 823 824 825 826 827 829 830 832 829 826 826 826 826 825 825 824 823 823 823 824 825 827 828 829 832 832 831 832 834 835 836 838 840 841 842 842 842 842 843 844 845 846 846 847 847 847 847 848 848 848 849 849 849 849 849 849 849 849 849 849 849 850 850 850 850 851 851
815 815 815 815 815 816 817 817 818 819 819 819 819 820 820 821 821 821 822 823 824 824 825 827 828 830 829 827 827 826 826 826 826 825 825 825 824 825 825 826 827 830 833 833 831 832 834 835 836 838 839 840 841 841 841 842 842 843 843 844 845 846 846 846 847 848 848 849 849 849 849 849 849 849 849 849 849 849 849 849 850 850 850 851 851
816 815 815 815 815 816 817 818 818 819 819 819 819 820 820 820 820 821 821 821 822 823 824 825 826 827 827 828 828 827 827 827 827 827 826 825 824 824 825 825 827 829 832 832 832 834 835 836 837 838 839 840 840 841 841 842 842 842 842 843 843 844 844 845 846 847 848 848 849 849 849 849 849 849 850 849 849 849 849 849 849 850 850 850 851
816 816 816 816 816 816 817 818 818 819 819 819 819 820 820 820 820 820 820 821 822 822 823 824 824 825 826 827 827 827 827 827 828 828 825 824 824 824 825 826 828 831 833 833 834 836 837 837 838 839 839 840 840 841 841 841 841 842 842 842 843 844 844 845 846 847 848 848 849 849 849 849 849 849 850 850 850 850 850 850 849 850 850 850 851
816 816 816 816 816 816 817 818 818 819 819 819 819 819 820 820 820 820 820 821 822 822 823 823 823 824 825 827 826 826 828 829 829 827 825 825 825 826 826 827 828 831 834 835 837 839 839 839 839 840 840 840 840 840 840 841 841 842 842 843 844 844 844 845 846 847 847 848 848 848 848 849 849 849 850 849 849 849 850 850 850 850 850 851 851
816 816 816 816 816 817 817 818 818 818 819 819 819 819 819 820 820 820 820 821 822 822 822 823 824 824 826 827 826 826 828 829 828 827 827 826 827 828 828 829 830 831 834 836 838 840 840 839 839 840 840 841 841 841 841 842 843 843 843 843 843 844 844 844 845 846 847 847 848 848 848 848 848 849 849 849 849 850 850 850 850 851 851 851 851
817 817 817 817 817 818 818 818 818 819 818 818 819 819 819 819 820 820 820 820 820 820 821 822 823 824 825 825 826 827 829 829 828 828 828 828 829 831 831 831 830 832 835 836 837 839 840 840 840 840 841 842 842 842 842 843 843 844 843 843 843 843 843 843 844 845 846 847 847 847 848 848 848 848 848 849 849 850 850 850 850 850 850 851 851
818 818 819 819 819 819 819 819 819 819 819 819 819 819 819 819 820 820 820 820 820 820 820 821 822 823 823 824 825 828 829 828 828 829 830 831 831 832 833 832 833 835 836 837 838 838 840 841 841 842 843 844 843 842 843 843 843 844 843 843 843 843 843 843 844 845 845 846 846 846 847 847 848 848 848 848 849 850 851 851 850 850 850 851 851
819 820 820 820 821 821 821 821 820 820 820 820 820 820 820 820 820 820 820 820 820 820 820 821 822 823 823 823 824 826 827 827 828 829 832 834 834 834 835 835 835 837 837 838 838 838 839 840 841 842 844 845 844 843 842 843 843 844 844 844 843 843 843 843 844 844 845 845 845 846 846 847 847 847 848 849 850 850 851 850 850 850 850 850 850
821 821 821 822 822 822 822 822 822 821 821 821 822 822 821 821 821 821 821 820 820 820 821 821 822 823 822 823 824 824 825 826 826 828 831 834 836 835 836 838 838 838 839 839 839 840 840 840 841 842 843 844 845 845 844 843 843 843 844 844 844 844 844 844 844 844 844 844 845 845 845 846 846 846 847 848 849 850 850 850 849 849 849 850 850
822 822 823 823 823 824 824 824 823 822 822 822 823 823 822 822 821 821 822 821 821 822 822 822 823 824 823 823 824 824 825 826 827 828 829 833 835 835 837 839 840 840 840 840 840 841 841 841 842 843 844 845 845 846 845 844 844 844 844 844 844 844 845 845 845 845 845 845 845 845 845 845 845 845 846 847 848 849 850 849 848 848 849 849 849
823 824 824 825 825 825 825 825 825 824 824 824 824 824 823 823 823 823 823 823 823 823 823 824 824 825 825 825 825 824 826 828 830 830 831 833 834 835 836 838 840 841 842 841 841 841 841 842 842 843 844 845 846 846 846 845 845 845 845 845 845 845 845 845 845 845 846 845 846 846 845 845 844 845 846 846 847 848 848 847 847 846 846 847 847
825 825 826 826 826 827 827 827 826 826 826 825 825 825 824 824 824 824 824 824 824 825 825 825 826 827 827 826 826 826 826 827 829 831 832 833 833 834 835 837 839 841 842 842 842 841 842 842 843 844 845 846 847 847 846 846 846 846 846 846 846 846 846 846 846 846 847 847 847 846 846 845 845 845 845 845 846 846 846 846 846 845 845 846 846
826 826 827 827 828 828 828 828 828 827 827 827 826 826 826 826 826 826 826 826 826 826 827 828 828 828 828 828 828 828 828 827 828 829 830 831 832 833 834 836 838 839 841 841 841 842 842 842 843 845 846 847 848 848 847 847 847 847 847 847 847 847 847 847 847 848 848 848 847 847 846 846 845 845 844 844 845 845 846 847 847 846 845 845 845
826 827 828 829 829 829 829 829 829 829 829 828 828 828 828 828 828 828 828 828 828 828 829 830 830 830 830 830 829 829 830 830 830 830 831 831 831 831 833 835 837 838 839 840 840 842 843 844 845 846 847 848 849 849 849 848 848 848 848 848 848 848 848 848 848 848 848 848 848 847 847 846 845 845 844 845 845 845 846 846 846 846 845 845 845
826 828 829 830 830 830 831 830 830 830 830 830 830 829 829 829 829 830 830 830 830 831 831 831 832 832 831 831 831 831 831 831 831 831 831 831 831 831 832 834 834 834 836 838 840 841 843 845 846 847 848 849 849 850 850 850 850 849 849 849 849 849 849 849 849 848 848 848 847 847 846 846 846 845 845 845 845 845 845 845 845 845 845 844 844
826 828 829 830 831 831 831 831 831 831 831 831 831 831 831 831 831 831 832 832 832 832 833 833 833 833 833 833 833 833 833 833 832 832 832 832 832 832 833 833 833 834 835 838 840 842 844 845 847 848 849 849 850 850 850 851 850 850 850 850 850 850 850 849 849 849 848 848 847 847 847 846 846 845 845 844 844 844 844 844 844 844 844 843 843
826 828 829 830 831 832 832 832 832 832 832 832 832 832 832 832 833 833 833 834 834 834 834 834 835 835 835 835 835 835 835 835 835 834 834 834 834 834 833 832 834 837 838 840 841 843 844 845 847 848 849 849 850 851 851 851 851 851 851 851 850 850 850 850 849 849 848 848 847 847 847 846 845 845 845 844 844 844 843 843 843 843 843 842 842
826 828 829 830 831 832 832 833 833 833 833 833 833 833 833 834 834 834 835 835 835 835 836 836 836 836 836 836 837 837 837 837 837 836 836 836 835 835 834 833 833 835 837 841 843 844 845 845 846 848 849 850 850 851 851 852 852 852 852 852 850 850 850 849 849 849 848 848 847 847 846 846 845 845 844 844 844 843 843 842 842 842 842 842 841
826 827 829 830 831 832 833 833 833 834 834 834 834 834 834 835 835 836 836 836 837 837 837 837 838 838 838 838 838 839 839 839 838 838 838 838 837 837 836 836 836 834 834 839 844 845 846 847 847 848 849 850 850 851 852 852 852 852 852 852 851 850 850 849 849 849 848 848 847 846 846 845 844 844 843 843 843 842 842 841 841 841 841 841 840
826 827 829 830 831 832 833 834 834 834 835 835 835 835 836 836 836 837 837 837 838 838 838 839 839 839 839 840 840 840 840 840 840 840 839 839 839 838 838 838 838 837 836 839 843 846 848 848 849 849 850 850 851 851 852 852 851 851 852 852 851 850 849 849 849 848 848 848 847 846 845 844 844 843 843 842 842 841 841 840 840 840 839 839 839
826 827 829 830 831 832 833 834 834 835 835 836 836 836 837 837 837 837 838 838 839 839 839 840 840 840 840 841 841 841 842 841 841 841 841 841 840 840 840 840 840 840 840 840 843 847 849 849 850 850 850 851 851 851 852 852 852 851 852 852 851 850 849 848 848 848 848 847 847 846 844 843 843 842 841 841 840 840 839 839 838 838 838 838 837
826 827 828 829 830 831 832 833 834 835 836 836 837 837 837 838 838 838 839 839 839 839 840 840 841 841 842 842 842 843 843 842 842 842 842 842 841 841 841 841 842 842 842 843 845 847 850 850 850 851 851 851 851 851 852 852 852 852 852 852 851 850 850 849 848 847 847 847 846 845 844 843 842 841 840 840 839 838 838 837 837 836 836 836 835
825 827 828 829 830 831 832 833 834 835 836 836 837 838 838 839 839 839 839 839 839 840 841 841 841 842 843 843 843 843 844 844 843 843 843 843 842 842 842 842 843 843 844 844 845 847 849 850 851 851 851 851 851 852 852 853 853 852 852 852 851 851 851 850 848 847 846 846 845 844 843 842 841 840 839 839 838 837 836 836 835 835 834 834 833
825 826 827 828 829 830 831 832 833 834 835 836 837 837 838 839 839 840 840 840 840 840 841 841 841 842 843 843 844 844 844 845 844 844 844 844 843 843 843 844 844 845 845 845 845 846 848 849 850 850 851 851 851 852 852 853 853 853 852 852 851 851 850 850 850 847 845 845 845 844 843 841 840 839 839 838 837 836 835 834 834 833 832 832 831
823 825 827 828 829 830 830 831 832 833 834 835 836 837 838 838 839 839 840 840 840 840 840 841 841 842 843 844 844 845 845 845 845 845 845 846 845 845 845 846 846 847 847 847 847 847 847 848 849 850 850 851 851 852 852 852 852 851 851 851 851 851 850 850 850 848 845 844 843 843 842 841 840 838 838 837 836 835 834 833 832 831 830 830 829
822 824 826 827 828 829 830 830 831 832 833 834 835 836 837 838 838 838 839 839 839 839 840 840 840 841 842 843 843 844 845 845 846 846 846 846 846 846 846 846 847 848 849 849 848 848 848 848 849 850 851 852 851 852 853 853 853 852 851 851 851 851 850 849 849 848 846 843 842 841 840 839 838 837 836 835 834 833 832 831 830 830 829 828 827
821 823 825 826 827 828 829 829 829 830 831 833 833 834 836 836 837 837 837 837 837 837 837 838 839 840 841 842 843 844 844 845 846 846 846 847 847 847 847 846 847 848 849 850 849 849 849 849 850 850 851 852 852 852 852 853 854 853 851 851 851 851 850 849 848 847 845 843 841 840 839 838 837 836 834 833 832 831 830 829 829 828 827 826 825
821 822 824 825 826 827 828 828 829 829 829 831 832 833 834 834 835 836 835 835 834 835 835 836 837 838 839 841 841 843 844 844 845 846 846 847 847 847 848 848 848 848 849 850 850 850 851 851 851 851 851 852 852 852 852 852 853 852 851 851 851 851 850 849 847 846 844 843 841 840 839 838 837 835 833 832 831 830 829 828 827 827 825 824 824
820 821 823 824 825 826 827 827 827 827 828 829 831 832 833 833 834 833 833 833 833 834 834 834 835 835 837 839 840 842 843 843 845 845 846 847 847 848 849 849 849 849 850 851 851 851 851 852 852 851 851 851 851 851 851 852 852 852 852 853 851 850 849 848 847 845 843 842 841 840 839 837 836 834 832 831 829 828 827 826 826 825 823 822 822
819 820 821 823 823 824 825 825 825 825 826 828 830 831 832 832 832 833 833 834 835 835 834 834 834 834 835 838 839 841 841 842 844 844 845 846 847 848 848 848 849 849 850 851 851 851 852 852 852 852 851 851 851 851 852 852 853 853 854 853 851 849 848 847 846 844 843 841 840 839 838 837 835 834 832 830 828 827 826 825 823 822 821 821 821
817 818 819 820 823 825 824 822 822 824 826 828 830 831 831 831 832 834 835 835 835 836 834 833 833 834 835 837 838 839 841 842 843 844 845 846 846 847 847 848 849 849 850 851 851 852 853 853 853 853 852 852 852 852 852 853 853 853 854 853 851 849 847 845 844 843 842 841 839 838 837 836 834 832 831 830 828 826 826 824 822 821 821 820 820
817 818 819 820 823 826 825 823 822 824 827 829 830 830 830 831 832 834 835 835 834 834 833 832 832 834 835 837 838 839 840 841 842 843 844 845 845 846 847 847 849 850 850 851 851 852 853 853 853 853 853 853 853 853 853 852 853 854 854 853 850 848 847 845 843 842 842 841 839 837 835 834 833 831 829 829 828 826 826 824 823 821 821 820 820
818 819 820 821 822 824 825 825 825 826 828 829 829 829 830 830 832 833 833 833 833 833 833 833 833 835 836 837 839 839 840 841 842 843 843 843 844 845 846 847 848 849 850 851 851 852 852 853 853 854 853 854 853 853 853 853 853 854 853 852 850 848 847 846 844 842 841 841 839 836 833 832 832 830 828 827 826 825 825 823 822 821 820 819 819
819 820 821 822 822 824 825 827 827 827 828 828 828 829 830 831 832 833 833 833 833 833 834 835 835 836 837 838 839 840 841 841 842 843 842 842 843 844 845 846 847 848 849 850 851 851 852 853 854 854 854 854 854 854 854 853 853 853 852 851 850 848 847 846 844 842 841 840 838 835 832 831 830 828 827 826 825 824 823 821 820 819 818 817 816
818 820 821 822 823 824 825 827 828 827 828 828 829 830 831 832 833 833 833 834 834 835 836 837 837 838 839 839 839 840 841 841 842 843 842 842 843 844 845 846 847 848 849 850 850 851 852 853 853 854 854 854 854 854 853 853 852 852 851 850 849 847 846 844 843 841 839 837 837 834 831 829 829 827 825 824 824 823 821 820 818 817 815 815 814
818 820 822 824 824 825 826 828 829 828 828 829 829 830 831 832 833 834 835 835 836 836 837 838 839 839 840 840 840 841 841 841 841 842 843 843 844 845 846 847 848 849 849 849 850 851 851 852 853 853 853 853 853 853 852 852 851 851 850 849 848 846 845 843 841 839 837 835 835 833 830 828 828 826 824 823 822 821 820 819 817 815 814 813 812
819 820 822 823 824 825 826 827 828 828 828 829 830 831 832 833 833 834 835 836 836 838 838 839 840 840 840 841 841 841 842 841 841 842 843 844 845 846 847 848 849 849 849 849 850 850 851 851 851 852 851 851 851 851 851 850 849 849 848 847 846 845 843 841 838 837 835 834 833 832 829 827 826 825 823 822 821 819 818 817 816 814 813 811 810
819 821 822 823 824 825 826 827 827 828 829 830 831 832 832 833 834 834 835 836 837 838 839 840 841 841 841 841 842 842 842 842 842 843 843 844 845 846 847 848 849 850 849 849 850 850 850 850 850 850 850 850 850 849 849 848 847 847 847 846 845 844 842 840 838 836 835 833 832 831 828 826 826 825 822 821 820 818 817 816 814 813 811 810 809
819 820 822 822 824 825 825 826 827 828 829 830 831 832 832 833 834 834 835 836 837 839 840 841 842 842 842 842 842 843 843 843 843 844 844 844 845 845 847 848 849 849 849 849 850 850 850 849 849 849 849 848 848 847 847 846 846 846 846 845 845 844 842 840 838 836 834 833 831 829 827 826 825 824 822 820 818 817 816 814 813 812 810 808 807
819 821 822 822 824 825 825 826 827 828 829 830 831 832 832 833 834 834 835 835 837 838 839 840 842 843 843 844 843 844 844 844 845 845 845 845 845 846 847 847 848 848 848 849 850 850 850 849 848 847 847 846 846 845 845 845 845 845 845 844 844 843 842 840 838 836 834 832 829 828 828 826 825 824 823 820 817 815 815 814 812 811 809 807 806